Location: Newark
(0.5300°S, 127.4800°E)
Time: 03:37:21
(UTC+00:00)

A-11 Canister half - Pass Details

Date: 16 September 2019
Orbit: 1514 x 1686 km, 47.2° (Epoch: 16 October)

Event Time Altitude Azimuth Distance (km) Brightness Sun altitude
Rises 09:08:45 0° 356° (N) 4,713 11.7 4.1°
Reaches altitude 10° 09:14:37 10° 24° (NNE) 3,773 10.9 2.6°
Maximum altitude 09:18:08 12° 46° (NE) 3,611 10.6 1.7°
Drops below altitude 10° 09:21:42 10° 68° (ENE) 3,829 10.5 0.8°
Enters shadow 09:27:22 - 94° (E) 4,794 10.9 -0.6°
Sets 09:27:40 0° 95° (E) 4,861 - -0.7°
